STARLINK-37209, 69187

Orbit data source: Space-Track

STARLINK-37209, 69187 is a payload satellite owned by SpaceX/Seattle (US) in LEO that was launched on Mon, 25 May 2026 UTC via an FALCON 9 launch vehicle from the Air Force Eastern Test Range (AFETR). Payload-class satellites include a variety of spacecraft equipped with specific instruments for various scientific and technological missions. These include communications satellites like Starlink; space stations such as the ISS; scientific satellites like the Hubble; Earth observation satellites from companies like Planet Labs, Umbra, and HawkEye 360; GPS; miniature CubeSats for education and research; and military/defense satellites.

Loading next visibility...
Identifier
69187, 2026-114F
Orbit
LEO
Country
Flag of USUS
Related business
Manufacturer
SpaceX/Seattle
Mission
Operational spacecraft
Bus & Motor
STARLINK V2MO, Unknown motor
Mass
575 kg wet, ~530 kg dry
Launch date (UTC)
2026-05-25 (4 weeks ago)
Launch vehicle
FALCON 9
Launch site
Air Force Eastern Test Range (AFETR)
Object type
Payload
Rocket body
Debris
Shape & HBR
Unknown
Radar Cross Section
Large (>1 m²)

Expand to show TLE details & history
Last TLE update: 2 days ago

TLE from 2 days ago
0 STARLINK-37209
1 69187U 26114F   26170.30398798  .00226391  00000-0  12800-2 0  9994
2 69187  53.1574 191.8801 0003972 325.8875  34.1890 15.77934111  5105
Epoch: 2026-06-19T07:17Z
TLE epoch observation values (Epoch: 2026-06-19T07:17:44.561Z)
Latitude
-0.00007°
Longitude
174.90948°
Altitude
335.007 km
Speed
7.71 km/s
True Right ascension
12h 47m 31s
True Declination
0° 00' 00"
Sunlit
Object was in daylight at epoch
Visualization orbit readout
Latitude
Unknown
Longitude
Unknown
Altitude
Unknown
Speed
Unknown
Apparent Right ascension
Unknown
Apparent Declination
Unknown
Sunlit
N/A
Visualization observer readout
Local Sidereal Time
07:15:46
Azimuth
Unknown
Elevation
Unknown
Doppler factor
Unknown
Orbital elements
Apogee altitude
339.224 km
Perigee altitude
333.89 km
Semi-major axis
6,714.694 km
Eccentricity
0.0004
Inclination
53.1574°
RAAN
191.8801°
Arg. of periapsis
325.8875°
True anomaly
34.21459°
Mean anomaly
34.189°
Eccentric anomaly
34.20179°
Mean motion
3.94461 °/min
Orbital period
91.26 mins
BSTAR
0.00128
Loading maneuver chart data...
Computing Atmospheric mass density...
Loading historical data...
Loading historical data...
Loading historical data...
Loading historical data...
Loading historical data...
Loading historical data...
Loading historical data...

Documentation

Showing up to 5 results
|